Tracking 27111 objects as of 28-Mar-2023
HD Live streaming from Space Station
objects crossing your sky now

STARLINK-5304

Track STARLINK-5304 now!
10-day predictions
STARLINK-5304 is classified as:


NORAD ID: 54843
Int'l Code: 2022-177Z
Perigee: 565.4 km
Apogee: 566.9 km
Inclination: 43.0 °
Period: 95.8 minutes
Semi major axis: 6937 km
RCS: Unknown
Launch date: December 28, 2022
Source: United States (US)
Launch site: AIR FORCE EASTERN TEST RANGE (AFETR)
Your satellite tracking list
Your tracking list is empty




NASA's NSSDC Master Catalog

Two Line Element Set (TLE):
1 54843U 22177Z   23087.11236994  .00009626  00000-0  72610-3 0  9990
2 54843  43.0011 228.2438 0001105 284.8545  75.2175 15.02564949 13889
Source of the keplerian elements: AFSPC